Location: Foligno
(42.9600°N, 12.7050°E)
Time: 14:24:23
(UTC+01:00)

ISS - Visible Passes

Search period start: 17 February 2019 00:00
Search period end: 27 February 2019 00:00
Orbit: 403 x 411 km, 51.6° (Epoch: 17 February)

Date Brightness Start Highest point End Pass type
(mag) Time Alt. Az. Time Alt. Az. Time Alt. Az.
22 Feb -0.7 05:49:27 10° SSE 05:51:02 13° SE 05:52:37 10° ESE visible
24 Feb -2.0 05:41:23 10° SSW 05:44:17 30° SE 05:47:13 10° ENE visible
25 Feb -1.3 04:51:59 15° SSE 04:52:58 17° SE 04:55:10 10° E visible
26 Feb -3.7 05:35:45 23° SW 05:37:39 75° SE 05:40:56 10° ENE visible
